Weather in Port Sudan

Sudan     19˚35′14″N   37˚12′08″E
temp.,
°C
wind,
m/s
gust,
m/s
humid.,
%
clouds,
%
prec.,
mm/h
press.,
hPa
HPBL,
m
1 december, tue
tue123:00+25˚nnw56629 0.0 1015619
02:00+24˚nnw556544 0.0 1013594
05:00+23˚nnw676778 0.0 1013327
08:00+24˚nnw455540 0.0 1014467
11:00+26˚nne44520 0.0 10131007
14:00+27˚nne44520 0.0 1010931
17:00+26˚ne55520 0.0 1012729
20:00+26˚nne23520 0.0 1013542
2 december, wed
wed223:00+25˚nnw33520 0.0 1014488
02:00+24˚nw455816 0.0 1013218
05:00+23˚nnw356120 0.0 1014308
08:00+25˚nnw455611 0.0 1015547
11:00+27˚nne55490 0.0 10131277
14:00+28˚ne66440 0.0 10121280
17:00+26˚nne66510 0.0 10121029
20:00+26˚nne45530 0.0 1014556
3 december, thu
thu323:00+25˚n455610 0.0 1014601
02:00+25˚nnw565440 0.0 1013631
05:00+24˚nnw675666 0.0 1014535
08:00+25˚nnw785637 0.0 1015702
11:00+27˚nne765537 0.0 10141262
14:00+27˚nne665752 0.0 1011985
17:00+26˚nne666294 0.0 1012871
20:00+26˚nne566780 0.0 1014802
4 december, fri
fri423:00+26˚n566689 0.0 1013877
02:00+24˚nnw666584 0.0 1012523
05:00+24˚nnw576663 0.0 1013510
08:00+25˚nnw676781 0.1 1014713
11:00+26˚n676799 0.1 1013820
14:00+27˚nne666887 0.1 1011810
17:00+26˚nne567143 0.0 1012699
20:00+26˚nne557041 0.0 1014793
5 december, sat
sat523:00+26˚n5670100 0.1 1013745
02:00+25˚nnw566975 0.1 1012510
05:00+25˚nnw677089 0.0 1013599
08:00+25˚nnw796992 0.1 1014671
11:00+27˚n786571 0.0 1013906
14:00+27˚nne776268 0.0 1011942
17:00+26˚nne677116 0.0 1012819
20:00+26˚n566827 0.0 1014917